Climatologie pour Saint-Brevin les Pins
Jour • Résumé pour juillet 18, 2017 Système :  Métrique    Anglais   Mixte
« - 1 jour
+ 1 jour »
Jour Semaine Mois Année Personnalisé
  Maximum : Minimum : Moyenne :
Température sous abri : -17.8 °C -6.6 °C -3.7 °C
Point de rosée : -17.8 °C -9.4 °C -7.9 °C
Humidité : Humidity % 35 % 64 %
Vitesse du vent : 0 km/h 0 km/h 14.2 km/h
Rafale : 0 km/h - -
Direction :- - SSE
Pression : 0 hPa 34073.3 hPa -
Précipitations : 0 mm    
Historical Graphs
 
 
Tableau de données pour juillet 18, 2017
Heure Tempé Pt rosée Pression Vent Vitesse Rafale Humidité Taux pluie (/hr) Soleil
-17.8 °C -17.8 °C 0 hPa Calm     Humidity % 0 mm SolarRadiationWatts/m^2 W/m2 Conditions
00:00 -3.6 °C -7.9 °C 34327.3 hPa Calm   18.2 km/h 62 % 0 mm 0 W/m2
00:10 -3.6 °C -7.9 °C 34313.7 hPa ENE 5.1 km/h 18.2 km/h 62 % 0 mm 0 W/m2
00:15 -3.6 °C -8.1 °C 34313.7 hPa NE 10.3 km/h 18.2 km/h 61 % 0 mm 0 W/m2
00:20 -3.6 °C -8.1 °C 34313.7 hPa NE 5.1 km/h 25.9 km/h 61 % 0 mm 0 W/m2
00:25 -3.4 °C -8.1 °C 34313.7 hPa ENE 12.9 km/h 28.5 km/h 60 % 0 mm 0 W/m2
00:30 -3.4 °C -8.1 °C 34313.7 hPa ENE 12.9 km/h 28.5 km/h 60 % 0 mm 0 W/m2
00:35 -3.5 °C -8.2 °C 34313.7 hPa NE 18.2 km/h 20.8 km/h 60 % 0 mm 0 W/m2
00:40 -3.6 °C -8.1 °C 34313.7 hPa ENE 12.9 km/h 23.3 km/h 61 % 0 mm 0 W/m2
00:45 -3.7 °C -8.1 °C 34313.7 hPa NNE 5.1 km/h 23.3 km/h 62 % 0 mm 0 W/m2
00:50 -3.9 °C -8.1 °C 34313.7 hPa Calm   18.2 km/h 63 % 0 mm 0 W/m2
00:55 -4 °C -8.1 °C 34313.7 hPa NE 2.6 km/h 18.2 km/h 64 % 0 mm 0 W/m2
01:00 -4 °C -8 °C 34313.7 hPa Calm   23.3 km/h 64 % 0 mm 0 W/m2
01:05 -4 °C -8.2 °C 34313.7 hPa ENE 12.9 km/h 23.3 km/h 63 % 0 mm 0 W/m2
01:10 -4 °C -8.2 °C 34313.7 hPa NNE 10.3 km/h 23.3 km/h 63 % 0 mm 0 W/m2
01:15 -4 °C -8.2 °C 34313.7 hPa East 2.6 km/h 20.8 km/h 63 % 0 mm 0 W/m2
01:20 -4.1 °C -8.1 °C 34303.6 hPa East 7.7 km/h 23.3 km/h 64 % 0 mm 0 W/m2
01:25 -4.1 °C -8.2 °C 34303.6 hPa East 18.2 km/h 23.3 km/h 64 % 0 mm 0 W/m2
01:30 -4.1 °C -8.2 °C 34303.6 hPa ENE 18.2 km/h 20.8 km/h 64 % 0 mm 0 W/m2
01:40 -4.2 °C -8.2 °C 34303.6 hPa Calm   23.3 km/h 64 % 0 mm 0 W/m2
01:45 -4.2 °C -8.1 °C 34303.6 hPa ENE 7.7 km/h 23.3 km/h 65 % 0 mm 0 W/m2
01:50 -4.2 °C -8.1 °C 34293.4 hPa ENE 5.1 km/h 20.8 km/h 65 % 0 mm 0 W/m2
01:55 -4.3 °C -8.2 °C 34293.4 hPa ENE 10.3 km/h 18.2 km/h 65 % 0 mm 0 W/m2
02:00 -4.3 °C -8.2 °C 34293.4 hPa ENE 12.9 km/h 20.8 km/h 65 % 0 mm 0 W/m2
02:05 -4.4 °C -8.2 °C 34293.4 hPa ENE 10.3 km/h 28.5 km/h 66 % 0 mm 0 W/m2
02:10 -4.6 °C -8.3 °C 34293.4 hPa ENE 5.1 km/h 28.5 km/h 66 % 0 mm 0 W/m2
02:15 -4.6 °C -8.3 °C 34293.4 hPa NNE 12.9 km/h 23.3 km/h 66 % 0 mm 0 W/m2
02:20 -4.7 °C -8.2 °C 34293.4 hPa Calm   23.3 km/h 68 % 0 mm 0 W/m2
02:30 -4.8 °C -8.1 °C 34293.4 hPa Calm   20.8 km/h 69 % 0 mm 0 W/m2
02:35 -4.8 °C -8.1 °C 34293.4 hPa Calm   12.9 km/h 69 % 0 mm 0 W/m2
02:40 -4.8 °C -8.2 °C 34293.4 hPa Calm   18.2 km/h 69 % 0 mm 0 W/m2
02:45 -5 °C -8.2 °C 34293.4 hPa NE 7.7 km/h 18.2 km/h 70 % 0 mm 0 W/m2
02:50 -4.9 °C -8.2 °C 34293.4 hPa NE 5.1 km/h 12.9 km/h 70 % 0 mm 0 W/m2
02:55 -5.1 °C -8.2 °C 34293.4 hPa Calm   12.9 km/h 71 % 0 mm 0 W/m2
03:00 -5.2 °C -8.2 °C 34303.6 hPa North 7.7 km/h 12.9 km/h 72 % 0 mm 0 W/m2
03:05 -5.2 °C -8.1 °C 34303.6 hPa NNE 7.7 km/h 20.8 km/h 73 % 0 mm 0 W/m2
03:10 -5.1 °C -8 °C 34293.4 hPa NE 5.1 km/h 20.8 km/h 72 % 0 mm 0 W/m2
03:15 -4.9 °C -8.1 °C 34293.4 hPa NE 10.3 km/h 18.2 km/h 71 % 0 mm 0 W/m2
03:20 -4.9 °C -8.1 °C 34303.6 hPa North 7.7 km/h 12.9 km/h 71 % 0 mm 0 W/m2
03:25 -5 °C -8.1 °C 34293.4 hPa Calm   18.2 km/h 71 % 0 mm 0 W/m2
03:30 -5.1 °C -8.1 °C 34293.4 hPa NNE 18.2 km/h 18.2 km/h 71 % 0 mm 0 W/m2
03:35 -4.9 °C -8.2 °C 34279.9 hPa East 12.9 km/h 18.2 km/h 70 % 0 mm 0 W/m2
03:40 -4.9 °C -8.1 °C 34279.9 hPa East 18.2 km/h 28.5 km/h 70 % 0 mm 0 W/m2
03:45 -4.9 °C -8.2 °C 34269.7 hPa East 10.3 km/h 28.5 km/h 69 % 0 mm 0 W/m2
03:50 -4.8 °C -8.2 °C 34269.7 hPa ENE 28.5 km/h 28.5 km/h 69 % 0 mm 0 W/m2
03:55 -4.8 °C -8.2 °C 34269.7 hPa ENE 20.8 km/h 28.5 km/h 69 % 0 mm 0 W/m2
04:00 -4.8 °C -8.3 °C 34269.7 hPa ENE 10.3 km/h 28.5 km/h 68 % 0 mm 0 W/m2
04:05 -4.8 °C -8.3 °C 34269.7 hPa ENE 18.2 km/h 28.5 km/h 68 % 0 mm 0 W/m2
04:10 -4.9 °C -8.3 °C 34256.2 hPa East 12.9 km/h 28.5 km/h 68 % 0 mm 0 W/m2
04:15 -4.8 °C -8.3 °C 34256.2 hPa ESE 7.7 km/h 23.3 km/h 68 % 0 mm 0 W/m2
04:20 -4.8 °C -8.4 °C 34256.2 hPa East 7.7 km/h 28.5 km/h 67 % 0 mm 0 W/m2
04:25 -4.8 °C -8.3 °C 34256.2 hPa ESE 20.8 km/h 28.5 km/h 68 % 0 mm 0 W/m2
04:30 -4.8 °C -8.4 °C 34256.2 hPa ENE 25.9 km/h 33.6 km/h 67 % 0 mm 0 W/m2
04:35 -4.8 °C -8.4 °C 34256.2 hPa ENE 5.1 km/h 33.6 km/h 67 % 0 mm 0 W/m2
04:40 -4.8 °C -8.4 °C 34256.2 hPa East 7.7 km/h 25.9 km/h 67 % 0 mm 0 W/m2
04:45 -4.8 °C -8.3 °C 34246 hPa ESE 20.8 km/h 25.9 km/h 67 % 0 mm 0 W/m2
04:50 -4.8 °C -8.5 °C 34246 hPa ESE 12.9 km/h 28.5 km/h 66 % 0 mm 0 W/m2
04:55 -4.8 °C -8.5 °C 34246 hPa East 7.7 km/h 28.5 km/h 66 % 0 mm 0 W/m2
05:00 -4.8 °C -8.4 °C 34246 hPa East 12.9 km/h 28.5 km/h 67 % 0 mm 0 W/m2
05:05 -4.9 °C -8.5 °C 34246 hPa East 23.3 km/h 28.5 km/h 67 % 0 mm 0 W/m2
05:10 -4.9 °C -8.5 °C 34235.8 hPa East 7.7 km/h 25.9 km/h 67 % 0 mm 0 W/m2
05:15 -4.9 °C -8.5 °C 34235.8 hPa ESE 7.7 km/h 25.9 km/h 67 % 0 mm 0 W/m2
05:20 -4.9 °C -8.4 °C 34235.8 hPa ESE 20.8 km/h 33.6 km/h 67 % 0 mm 0 W/m2
05:25 -4.8 °C -8.6 °C 34235.8 hPa ESE 20.8 km/h 33.6 km/h 66 % 0 mm 0 W/m2
05:30 -4.9 °C -8.6 °C 34222.3 hPa ESE 23.3 km/h 33.6 km/h 66 % 0 mm 0 W/m2
05:35 -4.9 °C -8.6 °C 34222.3 hPa East 23.3 km/h 36.2 km/h 66 % 0 mm 0 W/m2
05:40 -4.9 °C -8.5 °C 34222.3 hPa SE 18.2 km/h 36.2 km/h 67 % 0 mm 0 W/m2
05:45 -4.9 °C -8.6 °C 34222.3 hPa ESE 10.3 km/h 28.5 km/h 67 % 0 mm 0 W/m2
05:50 -4.9 °C -8.6 °C 34222.3 hPa ESE 12.9 km/h 36.2 km/h 67 % 0 mm 0 W/m2
05:55 -5 °C -8.6 °C 34222.3 hPa East 18.2 km/h 36.2 km/h 67 % 0 mm 0 W/m2
06:00 -5.1 °C -8.6 °C 34222.3 hPa East 12.9 km/h 28.5 km/h 67 % 0 mm 0 W/m2
06:05 -5.1 °C -8.6 °C 34222.3 hPa SE 7.7 km/h 25.9 km/h 68 % 0 mm 0 W/m2
06:10 -5.2 °C -8.6 °C 34222.3 hPa ESE 2.6 km/h 33.6 km/h 68 % 0 mm 0 W/m2
06:15 -5.2 °C -8.6 °C 34222.3 hPa East 12.9 km/h 33.6 km/h 68 % 0 mm 0 W/m2
06:20 -5.2 °C -8.6 °C 34222.3 hPa ESE 18.2 km/h 25.9 km/h 69 % 0 mm 0 W/m2
06:25 -5.2 °C -8.6 °C 34222.3 hPa SE 10.3 km/h 25.9 km/h 69 % 0 mm 0 W/m2
06:30 -5.3 °C -8.6 °C 34222.3 hPa East 7.7 km/h 25.9 km/h 69 % 0 mm 0 W/m2
06:35 -5.3 °C -8.6 °C 34222.3 hPa ESE 10.3 km/h 25.9 km/h 69 % 0 mm 0 W/m2
06:40 -5.3 °C -8.6 °C 34222.3 hPa ESE 23.3 km/h 31.1 km/h 69 % 0 mm 0 W/m2
06:45 -5.2 °C -8.6 °C 34222.3 hPa East 15.6 km/h 31.1 km/h 69 % 0 mm 5 W/m2
06:50 -5.3 °C -8.6 °C 34222.3 hPa SE 12.9 km/h 25.9 km/h 69 % 0 mm 7 W/m2
07:00 -5.3 °C -8.5 °C 34212.1 hPa SE 7.7 km/h 25.9 km/h 70 % 0 mm 14 W/m2
07:05 -5.3 °C -8.6 °C 34222.3 hPa ESE 10.3 km/h 20.8 km/h 70 % 0 mm 16 W/m2
07:10 -5.3 °C -8.5 °C 34222.3 hPa ESE 12.9 km/h 23.3 km/h 70 % 0 mm 18 W/m2
07:15 -5.3 °C -8.5 °C 34212.1 hPa ESE 12.9 km/h 23.3 km/h 70 % 0 mm 21 W/m2
07:20 -5.4 °C -8.6 °C 34212.1 hPa ESE 12.9 km/h 23.3 km/h 70 % 0 mm 25 W/m2
07:25 -5.3 °C -8.6 °C 34222.3 hPa SE 10.3 km/h 20.8 km/h 70 % 0 mm 26 W/m2
07:30 -5.3 °C -8.4 °C 34222.3 hPa ESE 5.1 km/h 20.8 km/h 71 % 0 mm 30 W/m2
07:35 -5.4 °C -8.4 °C 34212.1 hPa East 18.2 km/h 18.2 km/h 71 % 0 mm 35 W/m2
07:40 -5.3 °C -8.4 °C 34212.1 hPa ENE 7.7 km/h 20.8 km/h 71 % 0 mm 39 W/m2
07:45 -5.3 °C -8.3 °C 34212.1 hPa East 18.2 km/h 20.8 km/h 71 % 0 mm 40 W/m2
07:50 -5.2 °C -8.4 °C 34212.1 hPa ENE 2.6 km/h 23.3 km/h 70 % 0 mm 44 W/m2
07:55 -5.1 °C -8.3 °C 34212.1 hPa ENE 5.1 km/h 23.3 km/h 70 % 0 mm 47 W/m2
08:00 -5.1 °C -8.3 °C 34212.1 hPa ESE 5.1 km/h 18.2 km/h 70 % 0 mm 51 W/m2
08:05 -5 °C -8.3 °C 34212.1 hPa ENE 10.3 km/h 18.2 km/h 69 % 0 mm 54 W/m2
08:10 -4.9 °C -8.2 °C 34212.1 hPa East 15.6 km/h 23.3 km/h 69 % 0 mm 167 W/m2
08:15 -4.8 °C -8.3 °C 34212.1 hPa East 15.6 km/h 23.3 km/h 68 % 0 mm 193 W/m2
08:20 -4.7 °C -8.2 °C 34198.6 hPa ESE 23.3 km/h 33.6 km/h 68 % 0 mm 209 W/m2
08:25 -4.6 °C -8.2 °C 34198.6 hPa ESE 12.9 km/h 33.6 km/h 67 % 0 mm 227 W/m2
08:30 -4.5 °C -8.2 °C 34198.6 hPa East 10.3 km/h 33.6 km/h 66 % 0 mm 243 W/m2
08:35 -4.3 °C -8.1 °C 34198.6 hPa ESE 15.6 km/h 31.1 km/h 66 % 0 mm 257 W/m2
08:40 -4.3 °C -8.3 °C 34198.6 hPa SE 7.7 km/h 38.8 km/h 64 % 0 mm 269 W/m2
08:45 -4.1 °C -8.2 °C 34198.6 hPa ESE 18.2 km/h 38.8 km/h 64 % 0 mm 265 W/m2
08:50 -4.1 °C -8.2 °C 34198.6 hPa SE 23.3 km/h 38.8 km/h 63 % 0 mm 179 W/m2
08:55 -4 °C -8.2 °C 34198.6 hPa East 20.8 km/h 41.4 km/h 63 % 0 mm 260 W/m2
09:00 -3.9 °C -8.2 °C 34188.4 hPa ESE 31.1 km/h 41.4 km/h 62 % 0 mm 297 W/m2
09:05 -3.8 °C -8.2 °C 34188.4 hPa ESE 7.7 km/h 38.8 km/h 61 % 0 mm 327 W/m2
09:10 -3.7 °C -8.3 °C 34188.4 hPa SSE 23.3 km/h 36.2 km/h 60 % 0 mm 315 W/m2
09:15 -3.6 °C -8.3 °C 34188.4 hPa ESE 20.8 km/h 36.2 km/h 59 % 0 mm 308 W/m2
09:20 -3.4 °C -8.4 °C 34188.4 hPa SE 18.2 km/h 38.8 km/h 58 % 0 mm 373 W/m2
09:25 -3.2 °C -8.3 °C 34188.4 hPa ESE 28.5 km/h 38.8 km/h 57 % 0 mm 385 W/m2
09:30 -3.1 °C -8.2 °C 34188.4 hPa ESE 18.2 km/h 38.8 km/h 57 % 0 mm 397 W/m2
09:35 -2.9 °C -8.4 °C 34188.4 hPa ESE 12.9 km/h 38.8 km/h 55 % 0 mm 429 W/m2
09:40 -2.8 °C -8.4 °C 34178.3 hPa SSE 38.8 km/h 38.8 km/h 54 % 0 mm 450 W/m2
09:45 -2.6 °C -8.6 °C 34188.4 hPa SE 18.2 km/h 38.8 km/h 52 % 0 mm 473 W/m2
09:50 -2.4 °C -8.9 °C 34188.4 hPa SE 25.9 km/h 41.4 km/h 49 % 0 mm 501 W/m2
09:55 -2.4 °C -8.9 °C 34178.3 hPa ESE 25.9 km/h 44.1 km/h 49 % 0 mm 501 W/m2
10:00 -2.3 °C -8.7 °C 34178.3 hPa SE 28.5 km/h 44.1 km/h 50 % 0 mm 508 W/m2
10:05 -2.3 °C -8.8 °C 34178.3 hPa ESE 23.3 km/h 36.2 km/h 49 % 0 mm 322 W/m2
10:10 -2.2 °C -8.9 °C 34178.3 hPa East 33.6 km/h 38.8 km/h 48 % 0 mm 543 W/m2
10:15 -2.2 °C -8.9 °C 34178.3 hPa SE 23.3 km/h 38.8 km/h 48 % 0 mm 218 W/m2
10:20 -2.1 °C -8.8 °C 34164.7 hPa ENE 18.2 km/h 38.8 km/h 48 % 0 mm 396 W/m2
10:25 -1.9 °C -8.8 °C 34164.7 hPa ESE 5.1 km/h 54.4 km/h 47 % 0 mm 585 W/m2
10:30 -1.6 °C -8.8 °C 34164.7 hPa SE 18.2 km/h 54.4 km/h 45 % 0 mm 587 W/m2
10:35 -1.4 °C -8.8 °C 34164.7 hPa East 33.6 km/h 36.2 km/h 45 % 0 mm 594 W/m2
10:40 -1.4 °C -8.9 °C 34164.7 hPa ESE 12.9 km/h 38.8 km/h 44 % 0 mm 603 W/m2
10:45 -1.2 °C -8.9 °C 34164.7 hPa East 28.5 km/h 38.8 km/h 43 % 0 mm 601 W/m2
10:50 -1.2 °C -8.9 °C 34164.7 hPa SE 25.9 km/h 41.4 km/h 43 % 0 mm 592 W/m2
10:55 -1.1 °C -8.8 °C 34164.7 hPa SE 18.2 km/h 41.4 km/h 43 % 0 mm 575 W/m2
11:00 -1 °C -9.2 °C 34164.7 hPa SSE 15.6 km/h 38.8 km/h 41 % 0 mm 666 W/m2
11:05 -0.8 °C -9.2 °C 34154.6 hPa ESE 18.2 km/h 41.4 km/h 40 % 0 mm 650 W/m2
11:10 -0.5 °C -8.9 °C 34164.7 hPa SE 28.5 km/h 41.4 km/h 40 % 0 mm 719 W/m2
11:15 -0.3 °C -8.8 °C 34164.7 hPa SE 18.2 km/h 36.2 km/h 40 % 0 mm 668 W/m2
11:20 -0.3 °C -9.2 °C 34164.7 hPa SSW 15.6 km/h 36.2 km/h 38 % 0 mm 694 W/m2
11:25 -0.2 °C -8.9 °C 34178.3 hPa SE 20.8 km/h 31.1 km/h 39 % 0 mm 522 W/m2
11:30 -0.3 °C -9.2 °C 34178.3 hPa ESE 18.2 km/h 31.1 km/h 38 % 0 mm 355 W/m2
11:40 -0.7 °C -9.4 °C 34164.7 hPa South 12.9 km/h 33.6 km/h 39 % 0 mm 367 W/m2
11:45 -0.5 °C -9.4 °C 34164.7 hPa SSE 18.2 km/h 33.6 km/h 38 % 0 mm 424 W/m2
11:50 -0.2 °C -9.4 °C 34154.6 hPa East 12.9 km/h 23.3 km/h 37 % 0 mm 812 W/m2
12:00 -0.2 °C -9.3 °C 34154.6 hPa ESE 10.3 km/h 33.6 km/h 37 % 0 mm 455 W/m2
12:05 -0.1 °C -9.3 °C 34154.6 hPa East 12.9 km/h 33.6 km/h 37 % 0 mm 415 W/m2
12:10 0.1 °C -9.3 °C 34154.6 hPa SSW 20.8 km/h 36.2 km/h 36 % 0 mm 654 W/m2
12:15 0.3 °C -9.2 °C 34154.6 hPa SE 12.9 km/h 36.2 km/h 36 % 0 mm 701 W/m2
12:20 0.5 °C -9.2 °C 34154.6 hPa ENE 20.8 km/h 44.1 km/h 35 % 0 mm 700 W/m2
12:25 0.2 °C -9 °C 34154.6 hPa SE 15.6 km/h 44.1 km/h 37 % 0 mm 369 W/m2
12:30 0.1 °C -9.1 °C 34154.6 hPa SSE 12.9 km/h 33.6 km/h 37 % 0 mm 406 W/m2
12:35 0.1 °C -9.3 °C 34164.7 hPa South 18.2 km/h 28.5 km/h 36 % 0 mm 424 W/m2
12:40 -0.1 °C -9.2 °C 34164.7 hPa East 10.3 km/h 28.5 km/h 37 % 0 mm 417 W/m2
12:45 0.1 °C -9.3 °C 34164.7 hPa SE 18.2 km/h 33.6 km/h 36 % 0 mm 524 W/m2
12:50 0.6 °C -9.2 °C 34154.6 hPa SE 12.9 km/h 33.6 km/h 35 % 0 mm 754 W/m2
12:55 -0.3 °C -7.9 °C 34164.7 hPa NNW 15.6 km/h 38.8 km/h 44 % 0 mm 775 W/m2
13:00 -1.7 °C -7.9 °C 34164.7 hPa WNW 15.6 km/h 38.8 km/h 51 % 0 mm 798 W/m2
13:05 -2.3 °C -7.9 °C 34164.7 hPa WSW 31.1 km/h 38.8 km/h 54 % 0 mm 773 W/m2
13:10 -2.1 °C -8.1 °C 34164.7 hPa WSW 20.8 km/h 38.8 km/h 52 % 0 mm 842 W/m2
13:15 -1.8 °C -8 °C 34164.7 hPa WSW 18.2 km/h 31.1 km/h 51 % 0 mm 812 W/m2
13:20 -2.3 °C -8.2 °C 34164.7 hPa West 15.6 km/h 44.1 km/h 52 % 0 mm 698 W/m2
13:25 -2.6 °C -8.1 °C 34164.7 hPa SW 31.1 km/h 44.1 km/h 55 % 0 mm 738 W/m2
13:30 -2.6 °C -8.3 °C 34164.7 hPa WSW 7.7 km/h 38.8 km/h 53 % 0 mm 735 W/m2
13:35 -2.3 °C -8.1 °C 34154.6 hPa WSW 10.3 km/h 36.2 km/h 53 % 0 mm 758 W/m2
13:40 -2.2 °C -8.3 °C 34154.6 hPa SW 10.3 km/h 33.6 km/h 51 % 0 mm 731 W/m2
13:45 -2 °C -8.3 °C 34154.6 hPa SW 20.8 km/h 31.1 km/h 50 % 0 mm 851 W/m2
13:50 -1.8 °C -8.6 °C 34154.6 hPa WSW 28.5 km/h 33.6 km/h 48 % 0 mm 737 W/m2
13:55 -1.8 °C -8.7 °C 34154.6 hPa WNW 10.3 km/h 33.6 km/h 47 % 0 mm 842 W/m2
14:00 -1.6 °C -8.3 °C 34154.6 hPa WSW 23.3 km/h 31.1 km/h 48 % 0 mm 838 W/m2
14:05 -1.8 °C -8.5 °C 34154.6 hPa WSW 23.3 km/h 33.6 km/h 48 % 0 mm 854 W/m2
14:10 -1.6 °C -8.6 °C 34154.6 hPa West 18.2 km/h 33.6 km/h 47 % 0 mm 912 W/m2
14:15 -1.9 °C -8.8 °C 34144.4 hPa WNW 20.8 km/h 33.6 km/h 47 % 0 mm 814 W/m2
14:20 -2 °C -8.6 °C 34144.4 hPa West 7.7 km/h 31.1 km/h 49 % 0 mm 851 W/m2
14:25 -1.9 °C -8.7 °C 34130.9 hPa WNW 2.6 km/h 31.1 km/h 48 % 0 mm 868 W/m2
14:30 -1.9 °C -8.2 °C 34130.9 hPa West 15.6 km/h 28.5 km/h 50 % 0 mm 860 W/m2
14:35 -2 °C -8.7 °C 34130.9 hPa WNW 10.3 km/h 36.2 km/h 48 % 0 mm 844 W/m2
14:40 -2.1 °C -8.2 °C 34130.9 hPa WSW 20.8 km/h 36.2 km/h 51 % 0 mm 835 W/m2
14:45 -1.9 °C -8.3 °C 34120.7 hPa WNW 20.8 km/h 28.5 km/h 50 % 0 mm 826 W/m2
14:50 -2 °C -8.3 °C 34120.7 hPa West 7.7 km/h 28.5 km/h 50 % 0 mm 807 W/m2
14:55 -1.8 °C -8.2 °C 34120.7 hPa WNW 7.7 km/h 20.8 km/h 50 % 0 mm 798 W/m2
15:00 -1.5 °C -8.1 °C 34120.7 hPa West 7.7 km/h 20.8 km/h 49 % 0 mm 793 W/m2
15:05 -1.8 °C -8.4 °C 34120.7 hPa WSW 7.7 km/h 20.8 km/h 49 % 0 mm 795 W/m2
15:10 -1.7 °C -8.1 °C 34120.7 hPa SW 10.3 km/h 23.3 km/h 50 % 0 mm 796 W/m2
15:15 -1.8 °C -8.1 °C 34107.2 hPa WNW 20.8 km/h 25.9 km/h 50 % 0 mm 791 W/m2
15:20 -1.7 °C -8.2 °C 34107.2 hPa WSW 10.3 km/h 25.9 km/h 49 % 0 mm 788 W/m2
15:25 -1.4 °C -7.9 °C 34107.2 hPa WNW 12.9 km/h 23.3 km/h 49 % 0 mm 782 W/m2
15:30 -1.4 °C -8 °C 34107.2 hPa West 10.3 km/h 23.3 km/h 49 % 0 mm 780 W/m2
15:35 -1.3 °C -7.9 °C 34107.2 hPa West 12.9 km/h 23.3 km/h 49 % 0 mm 773 W/m2
15:45 -1.3 °C -7.8 °C 34107.2 hPa SW 10.3 km/h 20.8 km/h 49 % 0 mm 758 W/m2
15:50 -1.1 °C -7.9 °C 34107.2 hPa WSW 10.3 km/h 20.8 km/h 48 % 0 mm 749 W/m2
15:55 -1.1 °C -7.7 °C 34107.2 hPa West 5.1 km/h 20.8 km/h 49 % 0 mm 758 W/m2
16:00 -0.9 °C -7.8 °C 34097 hPa WSW 12.9 km/h 20.8 km/h 48 % 0 mm 751 W/m2
16:05 -1.1 °C -7.6 °C 34107.2 hPa SW 15.6 km/h 33.6 km/h 50 % 0 mm 742 W/m2
16:10 -1.2 °C -7.7 °C 34107.2 hPa SW 15.6 km/h 38.8 km/h 49 % 0 mm 733 W/m2
16:15 -1 °C -7.6 °C 34097 hPa SSW 12.9 km/h 38.8 km/h 49 % 0 mm 729 W/m2
16:20 -0.9 °C -7.6 °C 34107.2 hPa SSW 20.8 km/h 38.8 km/h 49 % 0 mm 717 W/m2
16:25 -1.1 °C -7.5 °C 34097 hPa SW 5.1 km/h 36.2 km/h 50 % 0 mm 707 W/m2
16:30 -1.1 °C -7.5 °C 34097 hPa West 7.7 km/h 36.2 km/h 50 % 0 mm 696 W/m2
16:40 -0.9 °C -7.4 °C 34097 hPa SSW 10.3 km/h 41.4 km/h 50 % 0 mm 671 W/m2
16:45 -1.3 °C -7.5 °C 34097 hPa SW 7.7 km/h 49.2 km/h 51 % 0 mm 671 W/m2
16:50 -1.5 °C -7.4 °C 34097 hPa South 20.8 km/h 49.2 km/h 53 % 0 mm 663 W/m2
16:55 -1.4 °C -6.9 °C 34097 hPa South 10.3 km/h 46.7 km/h 55 % 0 mm 654 W/m2
17:00 -1.4 °C -7.2 °C 34097 hPa West 15.6 km/h 44.1 km/h 54 % 0 mm 640 W/m2
17:05 -1.6 °C -7.1 °C 34086.9 hPa SSE 10.3 km/h 49.2 km/h 55 % 0 mm 628 W/m2
17:10 -1.6 °C -7 °C 34086.9 hPa SSW 18.2 km/h 49.2 km/h 56 % 0 mm 624 W/m2
17:15 -1.6 °C -7 °C 34086.9 hPa South 28.5 km/h 44.1 km/h 56 % 0 mm 619 W/m2
17:20 -1.8 °C -6.8 °C 34086.9 hPa SSW 18.2 km/h 44.1 km/h 58 % 0 mm 608 W/m2
17:25 -2.1 °C -7.1 °C 34086.9 hPa WSW 20.8 km/h 46.7 km/h 58 % 0 mm 473 W/m2
17:30 -2 °C -7 °C 34086.9 hPa SSW 15.6 km/h 46.7 km/h 58 % 0 mm 585 W/m2
17:35 -2 °C -7 °C 34086.9 hPa West 15.6 km/h 44.1 km/h 58 % 0 mm 571 W/m2
17:40 -2.2 °C -6.9 °C 34086.9 hPa SSE 23.3 km/h 51.8 km/h 60 % 0 mm 561 W/m2
17:45 -2.3 °C -6.8 °C 34086.9 hPa SSW 23.3 km/h 51.8 km/h 61 % 0 mm 550 W/m2
17:50 -2.1 °C -6.7 °C 34086.9 hPa SSW 28.5 km/h 49.2 km/h 61 % 0 mm 540 W/m2
17:55 -2.3 °C -6.8 °C 34086.9 hPa SSW 15.6 km/h 46.7 km/h 61 % 0 mm 529 W/m2
18:00 -2.4 °C -6.7 °C 34086.9 hPa WSW 10.3 km/h 46.7 km/h 63 % 0 mm 513 W/m2
18:05 -2.6 °C -6.7 °C 34086.9 hPa South 20.8 km/h 44.1 km/h 64 % 0 mm 504 W/m2
18:10 -2.8 °C -6.7 °C 34086.9 hPa West 7.7 km/h 44.1 km/h 65 % 0 mm 492 W/m2
18:15 -2.7 °C -6.5 °C 34086.9 hPa WSW 12.9 km/h 41.4 km/h 66 % 0 mm 471 W/m2
18:20 -2.8 °C -6.7 °C 34086.9 hPa SSW 20.8 km/h 41.4 km/h 66 % 0 mm 431 W/m2
18:25 -2.9 °C -6.8 °C 34086.9 hPa SSW 15.6 km/h 46.7 km/h 66 % 0 mm 441 W/m2
18:30 -2.8 °C -6.7 °C 34086.9 hPa SSW 18.2 km/h 46.7 km/h 66 % 0 mm 469 W/m2
18:35 -2.8 °C -6.7 °C 34086.9 hPa SW 28.5 km/h 38.8 km/h 66 % 0 mm 429 W/m2
18:40 -2.8 °C -6.7 °C 34086.9 hPa South 41.4 km/h 44.1 km/h 66 % 0 mm 385 W/m2
18:45 -2.9 °C -6.7 °C 34086.9 hPa South 10.3 km/h 44.1 km/h 66 % 0 mm 378 W/m2
18:50 -3.1 °C -6.6 °C 34086.9 hPa South 18.2 km/h 41.4 km/h 68 % 0 mm 381 W/m2
18:55 -3.2 °C -6.7 °C 34073.3 hPa SSW 31.1 km/h 38.8 km/h 69 % 0 mm 355 W/m2
19:00 -3.3 °C -6.6 °C 34073.3 hPa SSW 10.3 km/h 41.4 km/h 70 % 0 mm 295 W/m2
19:05 -3.2 °C -6.6 °C 34073.3 hPa South 20.8 km/h 41.4 km/h 69 % 0 mm 343 W/m2
19:10 -3.2 °C -6.6 °C 34073.3 hPa South 20.8 km/h 36.2 km/h 69 % 0 mm 366 W/m2
19:15 -3.6 °C -6.7 °C 34086.9 hPa SW 20.8 km/h 38.8 km/h 71 % 0 mm 274 W/m2
19:20 -3.9 °C -6.7 °C 34086.9 hPa SW 18.2 km/h 38.8 km/h 74 % 0 mm 192 W/m2
19:25 -3.9 °C -6.4 °C 34073.3 hPa SSW 12.9 km/h 33.6 km/h 76 % 0 mm 288 W/m2
19:30 -4 °C -6.5 °C 34073.3 hPa WSW 7.7 km/h 33.6 km/h 76 % 0 mm 206 W/m2
19:35 -4.2 °C -6.6 °C 34073.3 hPa SSW 12.9 km/h 41.4 km/h 77 % 0 mm 151 W/m2
19:40 -4.5 °C -6.7 °C 34086.9 hPa WSW 15.6 km/h 41.4 km/h 79 % 0 mm 186 W/m2
19:45 -4.6 °C -6.6 °C 34086.9 hPa South 23.3 km/h 33.6 km/h 80 % 0 mm 181 W/m2
19:50 -4.7 °C -6.6 °C 34086.9 hPa SW 7.7 km/h 25.9 km/h 81 % 0 mm 100 W/m2
19:55 -4.8 °C -6.7 °C 34073.3 hPa South 20.8 km/h 25.9 km/h 82 % 0 mm 142 W/m2
20:00 -4.9 °C -6.7 °C 34086.9 hPa SW 7.7 km/h 23.3 km/h 82 % 0 mm 93 W/m2
20:05 -5 °C -6.7 °C 34073.3 hPa WSW 5.1 km/h 31.1 km/h 83 % 0 mm 91 W/m2
20:10 -5.1 °C -6.7 °C 34086.9 hPa SW 12.9 km/h 31.1 km/h 84 % 0 mm 76 W/m2
20:20 -5.2 °C -6.7 °C 34086.9 hPa WSW 7.7 km/h 23.3 km/h 85 % 0 mm 104 W/m2
20:25 -5.3 °C -6.7 °C 34086.9 hPa SSW 12.9 km/h 25.9 km/h 86 % 0 mm 95 W/m2
20:30 -5.3 °C -6.7 °C 34086.9 hPa SSE 15.6 km/h 31.1 km/h 86 % 0 mm 127 W/m2
20:35 -5.3 °C -6.7 °C 34086.9 hPa South 18.2 km/h 31.1 km/h 86 % 0 mm 102 W/m2
20:40 -5.3 °C -6.7 °C 34086.9 hPa SSW 5.1 km/h 23.3 km/h 86 % 0 mm 77 W/m2
20:45 -5.3 °C -6.7 °C 34086.9 hPa SW 15.6 km/h 23.3 km/h 86 % 0 mm 60 W/m2
20:50 -5.4 °C -6.7 °C 34086.9 hPa SSW 5.1 km/h 23.3 km/h 86 % 0 mm 46 W/m2
20:55 -5.4 °C -6.8 °C 34086.9 hPa SW 18.2 km/h 28.5 km/h 86 % 0 mm 40 W/m2
21:00 -5.5 °C -6.8 °C 34086.9 hPa South 15.6 km/h 28.5 km/h 87 % 0 mm 40 W/m2
21:05 -5.4 °C -6.7 °C 34086.9 hPa South 15.6 km/h 25.9 km/h 87 % 0 mm 42 W/m2
21:10 -5.4 °C -6.7 °C 34086.9 hPa SSW 7.7 km/h 25.9 km/h 87 % 0 mm 42 W/m2
21:15 -5.5 °C -6.8 °C 34097 hPa SSW 12.9 km/h 23.3 km/h 87 % 0 mm 37 W/m2
21:20 -5.5 °C -6.8 °C 34086.9 hPa SSW 18.2 km/h 23.3 km/h 87 % 0 mm 32 W/m2
21:30 -5.6 °C -6.8 °C 34086.9 hPa South 15.6 km/h 44.1 km/h 88 % 0 mm 19 W/m2
21:35 -5.7 °C -6.8 °C 34086.9 hPa South 20.8 km/h 44.1 km/h 88 % 0 mm 14 W/m2
21:40 -5.7 °C -6.7 °C 34086.9 hPa South 12.9 km/h 31.1 km/h 89 % 0 mm 11 W/m2
21:45 -5.7 °C -6.8 °C 34086.9 hPa South 15.6 km/h 28.5 km/h 89 % 0 mm 9 W/m2
21:50 -5.7 °C -6.8 °C 34086.9 hPa South 7.7 km/h 23.3 km/h 89 % 0 mm 5 W/m2
21:55 -5.7 °C -6.8 °C 34086.9 hPa SSW 15.6 km/h 23.3 km/h 89 % 0 mm 0 W/m2
22:00 -5.8 °C -6.8 °C 34086.9 hPa South 5.1 km/h 23.3 km/h 89 % 0 mm 0 W/m2
22:05 -5.8 °C -6.8 °C 34086.9 hPa South 12.9 km/h 25.9 km/h 90 % 0 mm 0 W/m2
22:10 -5.8 °C -6.8 °C 34086.9 hPa SSW 7.7 km/h 25.9 km/h 90 % 0 mm 0 W/m2
22:15 -5.9 °C -6.7 °C 34086.9 hPa SSW 12.9 km/h 25.9 km/h 91 % 0 mm 0 W/m2
22:20 -5.9 °C -6.7 °C 34097 hPa WSW 10.3 km/h 23.3 km/h 91 % 0 mm 0 W/m2
22:25 -5.9 °C -6.7 °C 34097 hPa SW 2.6 km/h 23.3 km/h 91 % 0 mm 0 W/m2
22:35 -6.1 °C -6.9 °C 34097 hPa West 23.3 km/h 25.9 km/h 91 % 0 mm 0 W/m2
22:40 -6.2 °C -7.1 °C 34107.2 hPa SW 12.9 km/h 25.9 km/h 91 % 0 mm 0 W/m2
22:45 -6.3 °C -7.1 °C 34107.2 hPa SW 7.7 km/h 36.2 km/h 92 % 0 mm 0 W/m2
22:50 -6.5 °C -7.2 °C 34107.2 hPa SW 12.9 km/h 36.2 km/h 93 % 0 mm 0 W/m2
22:55 -6.6 °C -7.2 °C 34107.2 hPa WSW 10.3 km/h 25.9 km/h 93 % 0 mm 0 W/m2
23:00 -6.6 °C -7.1 °C 34120.7 hPa West 10.3 km/h 25.9 km/h 94 % 0 mm 0 W/m2
23:05 -6.6 °C -7.2 °C 34120.7 hPa SW 2.6 km/h 25.9 km/h 94 % 0 mm 0 W/m2
23:10 -6.6 °C -7.2 °C 34107.2 hPa SW 5.1 km/h 25.9 km/h 94 % 0 mm 0 W/m2
23:15 -6.6 °C -7.2 °C 34107.2 hPa WSW 18.2 km/h 25.9 km/h 94 % 0 mm 0 W/m2
23:20 -6.6 °C -7.2 °C 34107.2 hPa West 7.7 km/h 25.9 km/h 94 % 0 mm 0 W/m2
23:25 -6.6 °C -7.1 °C 34107.2 hPa WSW 10.3 km/h 25.9 km/h 95 % 0 mm 0 W/m2
23:30 -6.6 °C -7.1 °C 34107.2 hPa WSW 18.2 km/h 25.9 km/h 95 % 0 mm 0 W/m2
23:35 -6.6 °C -7.1 °C 34107.2 hPa WSW 12.9 km/h 28.5 km/h 95 % 0 mm 0 W/m2
23:40 -6.6 °C -7.2 °C 34107.2 hPa WSW 15.6 km/h 28.5 km/h 94 % 0 mm 0 W/m2
23:45 -6.6 °C -7.2 °C 34107.2 hPa WSW 10.3 km/h 25.9 km/h 94 % 0 mm 0 W/m2
23:50 -6.6 °C -7.2 °C 34107.2 hPa WSW 10.3 km/h 28.5 km/h 94 % 0 mm 0 W/m2
23:55 -6.6 °C -7.2 °C 34107.2 hPa SSW 7.7 km/h 28.5 km/h 94 % 0 mm 0 W/m2
Avec l'autorisation de Weather Underground - 1.75 mb